Location: Gwatt
(46.7204°N, 7.6223°E)
Time: 19:54:51
(UTC+00:00)

Transit 2A - Pass Details

Date: 21 January 2021
Orbit: 600 x 958 km, 66.7° (Epoch: 26 February)

Event Time Altitude Azimuth Distance (km) Brightness Sun altitude
Rises 02:26:09 0° 158° (SSE) 3,523 - -47.0°
Reaches altitude 10° 02:29:59 10° 135° (SE) 2,524 - -46.4°
Maximum altitude 02:32:50 14° 105° (ESE) 2,200 - -46.0°
Exits shadow 02:34:58 12° 81° (E) 2,325 9.0 -45.6°
Drops below altitude 10° 02:35:36 10° 75° (ENE) 2,418 9.1 -45.5°
Sets 02:39:07 0° 51° (NE) 3,272 10.0 -45.0°
